sat.trackr.live / text

‹ back to catalog

STARLINK-32742

NORAD 62605 · 2025-008U

PAYLOAD ACTIVE UNKNOWN

§ Identity

Operator
Country
US
Launch date
2025-01-13
Launch site
AFETR
Launch vehicle
Mass (kg)
RCS (m²)

Purposes: comms

External: N2YO · Heavens-Above · Gunter

§ Orbital elements

Epoch: 2026-05-24T13:50:52.537344Z

Period
94.27 min
Inclination
43.0038°
Eccentricity
0.0002446
Mean motion
15.27591404 rev/d
Perigee alt
481.3 km
Apogee alt
484.7 km
Semi-major
6,861.2 km
B*
4.2044e-4
RAAN
209.0677°
Arg perigee
277.9024°
Mean anomaly
82.1550°
Rev number
7,722

§ Raw data

STARLINK-327421 62605U 25008U   26144.57699696  .00011329  00000+0  42044-3 0  99902 62605  43.0038 209.0677 0002446 277.9024  82.1550 15.27591404 77224

JSON: /api/v1/satellites/62605 · /tle

For live sub-satellite position, see the globe view (requires WebGL).

§ Visibility from observer

Set your observer location to see the next 7 days of passes ≥ 10°. The values pass through the URL so the page stays shareable.

No JS? Fill the form by hand. The geolocation button needs JavaScript.